This demonstration page uses our WeatherBlox Daily Observations layout. Learn more.

Left ArrowRight Arrow

41.55636, -103.73856

Hourly Observations for March 5, 2021

Temp ( °F °C ) Dew Point ( °F °C ) Humidity (%) Winds ( mph kmh ) Pressure ( in mb ) Visibility ( mi km ) Precip ( " mm )
12:58 am 00:58 Clear 31 -0.6 19 -7.1 62 62 W 10 17 30.24 1024 10 16 0.00 0.00
1:58 am 01:58 Clear 33 0.5 20 -6.9 58 58 W 9 15 30.26 1025 10 16 0.00 0.00
2:58 am 02:58 Clear 30 -1 20 -6.8 65 65 W 12 19 30.29 1026 10 16 0.00 0.00
3:58 am 03:58 Clear 31 -0.5 20 -6.5 64 64 W 10 17 30.28 1025 10 16 0.00 0.00
4:58 am 04:58 Clear 33 0.4 21 -6.3 61 61 W 14 22 30.31 1026 10 16 0.00 0.00
5:58 am 05:58 Clear 32 0 21 -5.9 65 65 W 15 24 30.37 1028 10 16 0.00 0.00
6:58 am 06:58 Sunny 33 0.7 22 -5.4 64 64 W 10 17 30.38 1029 10 16 0.00 0.00
7:58 am 07:58 Sunny 40 4.4 23 -5 51 51 W 12 19 30.37 1029 10 16 0.00 0.00
8:58 am 08:58 Sunny 45 7.1 23 -5.1 42 42 WNW 12 19 30.37 1028 10 16 0.00 0.00
9:58 am 09:58 Sunny 49 9.5 22 -5.3 35 35 WNW 12 19 30.35 1028 10 16 0.00 0.00
11:58 am 11:58 Sunny 56 13.1 17 -8.4 22 22 W 8 13 30.29 1026 10 16 0.00 0.00
12:58 pm 12:58 Sunny 57 14 13 -10.7 17 17 WSW 13 20 30.27 1025 10 16 0.00 0.00
1:58 pm 13:58 Sunny 59 14.8 13 -10.3 17 17 WNW 12 19 30.23 1024 10 16 0.00 0.00
2:58 pm 14:58 Sunny 59 14.9 14 -10.1 17 17 W 14 22 30.24 1024 10 16 0.00 0.00
3:58 pm 15:58 Sunny 58 14.5 11 -11.7 15 15 WNW 13 20 30.23 1024 10 16 0.00 0.00
4:58 pm 16:58 Sunny 56 13.2 12 -11.3 17 17 WNW 9 15 30.22 1024 10 16 0.00 0.00
5:58 pm 17:58 Clear 44 6.8 13 -10.7 28 28 WNW 8 13 30.28 1026 10 16 0.00 0.00
6:58 pm 18:58 Clear 38 3.4 13 -10.7 35 35 W 12 19 30.32 1027 10 16 0.00 0.00
7:58 pm 19:58 Clear 35 1.8 15 -9.7 43 43 WNW 13 20 30.29 1026 10 16 0.00 0.00
8:58 pm 20:58 Clear 35 1.9 18 -7.6 50 50 W 13 20 30.24 1024 10 16 0.00 0.00
9:58 pm 21:58 Clear 36 2.2 18 -7.6 49 49 WSW 14 22 30.23 1024 10 16 0.00 0.00
10:58 pm 22:58 Clear 37 2.5 18 -7.7 47 47 WSW 16 26 30.20 1023 10 16 0.00 0.00
11:58 pm 23:58 Clear 38 3.2 17 -8.5 42 42 WSW 15 24 30.16 1022 10 16 0.00 0.00

Powered by AerisWeather